BEIDOU G3

Last updated on Tue Apr 02 2019 03:15:24 GMT+0000 (Coordinated Universal Time)

1 36590U 10024A 19091.02787821 -.00000153 00000-0 00000+0 0 9994 2 36590 1.5704 36.4338 0002162 37.2438 205.4819 1.00272543 32364
UTC large
Height (km)
Speed (km/s)
/
Latitude / Longitude
Inclination (degrees)
Orbital Period (minutes)
Azimuth
Elevation
Range (km)
Doppler Factor

Next 0 passes for location: London (51.5072 / 0.1276)

Sorry there are no passes over London.